[[{"header":{"parameterUnit":"m.s-1","parameterCategory":1,"la1":30.2991,"la2":30.254,"lo1":-89.0895,"lo2":-89.0444,"dy":0.0017,"dx":0.0017,"nx":28,"ny":28,"refTime":"2025-07-20T03:00:00:Z","depth":0,"parameterNumber":2,"parameterNumberName":"U-component_of_WINDS"},"data":[0,0,0,0,0,0,0,0,0,0,0,0,0,0,0,0,0,0,0,0,0,0,0,0,0,0,0,0,0,0,0,0,0,0,0,0,0,0,0,0,0,0,0,0,0,0,0,0,0,0,0,0,0,0,0,0,0,0,2.607,2.6071,0,2.6212,2.6213,2.6215,2.6204,2.6202,2.62,2.6198,2.6345,2.635,2.6356,0,0,0,0,0,0,0,0,0,0,0,0,0,2.5788,2.5793,2.6069,2.6071,2.6073,2.6212,2.6213,2.6215,2.6205,2.6202,2.6199,2.6197,2.6343,2.635,2.6357,0,0,0,0,0,0,0,0,0,0,0,0,0,2.5918,2.5795,2.6069,2.6084,2.6087,2.6211,2.6214,2.6216,2.6205,2.6202,2.6199,2.6196,2.634,2.6349,2.6358,2.6476,0,0,2.6385,2.6388,0,0,0,0,0,0,0,0,2.5911,2.5929,2.608,2.6084,2.6087,2.6187,2.6168,2.6303,2.6206,2.616,2.6198,2.6194,2.6295,2.6307,2.6341,2.6483,2.6489,2.6385,2.6391,2.6395,2.6397,0,0,0,0,0,0,0,2.5902,2.5922,2.6126,2.6083,2.6087,2.6084,2.6099,2.6194,2.6244,2.6164,2.6164,2.6181,2.6296,2.6332,2.6344,2.6491,2.6385,2.6393,2.6398,2.6402,2.6735,2.6739,0,0,0,0,0,0,2.5889,2.5915,2.6121,2.613,2.5989,2.6091,2.6108,2.6158,2.6243,2.6253,2.6183,2.618,2.6319,2.6334,2.6349,2.6492,2.6395,2.6403,2.6408,2.6732,2.6736,2.674,0,0,0,0,0,0,2.5883,2.5908,2.6116,2.6023,2.6049,2.61,2.6156,2.6163,2.6199,2.6257,2.6266,2.6211,2.6317,2.6337,2.6444,2.6497,2.6407,2.6415,2.6727,2.6733,2.6738,2.6778,0,0,0,0,0,0,2.5875,2.5906,2.5952,2.6024,2.6054,2.6208,2.6159,2.6168,2.6214,2.6211,2.6286,2.6295,2.6316,2.6431,2.6453,2.6507,2.6422,2.6723,2.673,2.6736,2.6772,2.6784,2.6794,0,0,0,0,0,2.5865,2.5958,2.5954,2.5979,2.6112,2.6211,2.6228,2.625,2.6218,2.6264,2.6301,2.6293,2.6488,2.6442,2.6467,2.6524,2.672,2.6728,2.6736,2.6767,2.6782,2.6794,0,0,0,0,0,0,2.5892,2.5968,2.5964,2.6083,2.6141,2.6209,2.6268,2.6265,2.6333,2.6327,2.6352,2.6369,2.6476,2.6511,2.6459,2.6642,2.6599,2.6613,2.6615,2.6629,2.664,2.6629,2.6429,0,0,0,0,0,2.5911,2.5985,2.6048,2.6147,2.6176,2.6217,2.6261,2.6273,2.6333,2.6358,2.6403,2.6462,2.6537,2.6585,2.6657,2.6778,2.6793,2.6829,2.684,2.6849,2.686,2.6924,2.694,2.6766,2.6766,2.6766,0,0,2.5953,2.6003,2.6049,2.6153,2.6199,2.6275,2.6238,2.632,2.6376,2.6371,2.6473,2.6509,2.6577,2.669,2.6743,2.6723,2.6911,2.6859,2.6866,2.6872,2.6934,2.695,2.6964,2.6772,2.6771,2.677,0,0,2.6066,2.6113,2.6199,2.6245,2.6315,2.6341,2.6362,2.6431,2.6454,2.6557,2.6554,2.6621,2.675,2.6797,2.6838,2.6968,2.6962,2.6991,2.7048,2.711,2.7123,2.7136,2.7179,2.7195,2.7002,2.7002,2.7002,0,2.6109,2.6222,2.6244,2.6326,2.6371,2.6369,2.6455,2.65,2.659,2.6621,2.6597,2.6756,2.6802,2.6926,2.6957,2.6991,2.7014,2.6982,2.712,2.7132,2.7144,2.7186,2.7203,2.7005,2.7004,2.7004,2.7004,0,2.627,2.6349,2.641,2.6495,2.6548,2.6632,2.6665,2.6716,2.6722,2.6751,2.6856,2.691,2.6992,2.7023,2.7031,2.7147,2.7132,2.7114,2.7071,2.7163,2.7203,2.7219,2.7009,2.7008,2.7007,2.7006,0,0,2.6404,2.6499,2.6521,2.6558,2.6634,2.6696,2.6779,2.6858,2.69,2.6962,2.7031,2.7139,2.7122,2.7169,2.7182,2.7237,2.7333,2.7212,2.7214,2.723,2.7461,2.7473,2.7491,2.733,2.7333,2.7335,2.7455,0,2.6523,2.667,2.6691,2.6821,2.6893,2.6891,2.6964,2.7018,2.7047,2.7112,2.7144,2.7219,2.7192,2.7219,2.7274,2.731,2.7379,2.7302,2.7393,2.7396,2.7374,2.7512,2.7526,2.7635,2.7471,2.7473,2.7475,0,2.6682,2.6747,2.6883,2.6947,2.6978,2.7043,2.7116,2.7178,2.7239,2.7256,2.7307,2.7313,2.7399,2.7354,2.7471,2.7417,2.7456,2.7479,2.7484,2.7492,2.744,2.7522,2.7671,2.7687,2.7501,2.7499,2.7497,0,2.6763,2.6885,2.6981,2.7014,2.7092,2.7137,2.7171,2.7229,2.7274,2.7338,2.7368,2.7441,2.7481,2.7538,2.7563,2.7528,2.7678,2.7635,2.7693,2.7693,2.7724,2.7721,2.7879,2.7752,2.7752,2.7752,2.7751,0,2.6893,2.6976,2.7018,2.7078,2.717,2.7193,2.7284,2.7317,2.7368,2.7433,2.7437,2.7498,2.7529,2.7594,2.7615,2.7708,2.7726,2.7742,2.7746,2.774,2.7738,2.7764,2.7757,2.7756,2.7755,2.7754,2.7753,0,2.6999,2.7031,2.7135,2.72,2.7218,2.7283,2.7338,2.7395,2.7423,2.7505,2.7526,2.757,2.7647,2.7678,2.7773,2.7787,2.7892,2.7892,2.7871,2.7872,2.7927,2.7921,2.8106,2.8131,2.799,2.7991,2.7992,0,2.7079,2.7142,2.7213,2.7256,2.7292,2.7362,2.7408,2.7433,2.748,2.7553,2.7601,2.7678,2.774,2.7864,2.7904,2.7976,2.7976,2.8036,2.7987,2.7978,2.7974,2.7969,2.7974,2.8044,2.8046,2.8047,2.8048,0,2.7216,2.7228,2.7294,2.7365,2.7419,2.7476,2.7532,2.7568,2.7601,2.7654,2.7732,2.778,2.7876,2.7952,2.8026,2.8061,2.806,2.8063,2.808,2.8074,2.8058,2.8065,2.7894,2.8058,2.8057,2.8057,2.8056,2.8056,2.731,2.7365,2.7423,2.7495,2.7539,2.7591,2.7647,2.7681,2.7747,2.7826,2.7837,2.792,2.7977,2.8076,2.8115,2.818,2.8164,2.8189,2.8195,2.82,2.8202,2.8049,2.8194,2.8193,2.8193,2.8193,2.8193,0,2.7445,2.7482,2.7548,2.7625,2.7682,2.7675,2.7736,2.7784,2.7857,2.791,2.7971,2.806,2.8133,2.8178,2.8251,2.8294,2.8295,2.8313,2.8309,2.8316,2.8214,2.819,2.831,2.831,2.831,2.831,2.831,2.831,2.7522,2.7614,2.7633,2.7747,2.7783,2.7864,2.7899,2.7946,2.7988,2.8087,2.8147,2.8176,2.8226,2.8302,2.8368,2.838,2.8405,2.8423,2.8433,2.8336,2.8324,2.8312,2.829,2.8429,2.843,2.853,2.8531,2.8532]},{"header":{"parameterUnit":"m.s-1","parameterCategory":1,"la1":30.2991,"la2":30.254,"lo1":-89.0895,"lo2":-89.0444,"dy":0.0017,"dx":0.0017,"nx":28,"ny":28,"refTime":"2025-07-20T03:00:00:Z","depth":0,"parameterNumber":3,"parameterNumberName":"V-component_of_WINDS"},"data":[0,0,0,0,0,0,0,0,0,0,0,0,0,0,0,0,0,0,0,0,0,0,0,0,0,0,0,0,0,0,0,0,0,0,0,0,0,0,0,0,0,0,0,0,0,0,0,0,0,0,0,0,0,0,0,0,0,0,0.5357,0.5357,0,0.536,0.536,0.536,0.5321,0.5319,0.5318,0.5317,0.5322,0.5324,0.5325,0,0,0,0,0,0,0,0,0,0,0,0,0,0.5317,0.5318,0.5357,0.5357,0.5357,0.536,0.536,0.536,0.5321,0.5319,0.5318,0.5317,0.5322,0.5323,0.5325,0,0,0,0,0,0,0,0,0,0,0,0,0,0.5329,0.5319,0.5357,0.5338,0.5336,0.536,0.536,0.536,0.5321,0.5319,0.5318,0.5316,0.5322,0.5323,0.5325,0.5369,0,0,0.533,0.5331,0,0,0,0,0,0,0,0,0.5329,0.5331,0.5341,0.5339,0.5337,0.5338,0.5348,0.5363,0.5321,0.5327,0.5317,0.5315,0.5329,0.533,0.5334,0.5369,0.5369,0.533,0.5331,0.5332,0.5333,0,0,0,0,0,0,0,0.5328,0.533,0.5358,0.5341,0.5339,0.5329,0.5329,0.5351,0.5337,0.5326,0.5323,0.5324,0.5328,0.5333,0.5334,0.5369,0.533,0.5332,0.5333,0.5334,0.5438,0.544,0,0,0,0,0,0,0.5329,0.533,0.5358,0.5358,0.5329,0.5331,0.5331,0.534,0.5337,0.5335,0.5326,0.5322,0.5331,0.5332,0.5334,0.5385,0.5332,0.5334,0.5335,0.5437,0.5439,0.5441,0,0,0,0,0,0,0.5329,0.5332,0.5358,0.5343,0.5346,0.5334,0.5344,0.5341,0.5345,0.5336,0.5334,0.5333,0.5329,0.5332,0.536,0.5384,0.5335,0.5336,0.5435,0.5437,0.544,0.5487,0,0,0,0,0,0,0.5328,0.5332,0.5349,0.5344,0.5347,0.5384,0.5345,0.5342,0.5348,0.5344,0.5343,0.5341,0.5328,0.5358,0.5362,0.5386,0.5338,0.5432,0.5436,0.5439,0.5483,0.549,0.5497,0,0,0,0,0,0.5326,0.5362,0.535,0.5353,0.5367,0.5385,0.5387,0.5371,0.535,0.5367,0.5361,0.5341,0.5381,0.5361,0.5365,0.539,0.5431,0.5435,0.5439,0.548,0.5489,0.5497,0,0,0,0,0,0,0.5371,0.5361,0.5347,0.5383,0.5385,0.5379,0.5399,0.5382,0.5391,0.5387,0.5367,0.5367,0.5398,0.5397,0.5375,0.5432,0.5402,0.5407,0.5432,0.5441,0.5448,0.5448,0.5339,0,0,0,0,0,0.5385,0.54,0.5391,0.5423,0.5425,0.5412,0.5419,0.5407,0.5409,0.541,0.5406,0.5409,0.5422,0.5431,0.5442,0.5482,0.5481,0.5501,0.5508,0.5514,0.5519,0.5539,0.5548,0.5454,0.5454,0.5453,0,0,0.5414,0.5411,0.5422,0.5432,0.5432,0.5449,0.5413,0.5432,0.5444,0.5413,0.5439,0.5436,0.5438,0.5472,0.5487,0.5472,0.5545,0.5519,0.5524,0.5526,0.5544,0.5553,0.5561,0.5456,0.5456,0.5455,0,0,0.5476,0.5475,0.5501,0.5502,0.5502,0.5493,0.5499,0.5495,0.5491,0.5517,0.5494,0.5508,0.5531,0.5533,0.5537,0.5598,0.558,0.5602,0.564,0.566,0.5667,0.5674,0.5696,0.5704,0.5607,0.5607,0.5607,0,0.5512,0.5536,0.5517,0.5537,0.5542,0.5513,0.554,0.5542,0.5546,0.5551,0.5533,0.5561,0.556,0.5594,0.5609,0.5613,0.562,0.5603,0.5668,0.5674,0.568,0.5701,0.5709,0.561,0.5609,0.5609,0.5609,0,0.5581,0.5597,0.5618,0.5623,0.563,0.5653,0.5638,0.5648,0.5634,0.5627,0.5653,0.5651,0.5661,0.5668,0.5656,0.57,0.5691,0.5671,0.5641,0.5692,0.5711,0.5719,0.5614,0.5613,0.5612,0.5611,0,0,0.5672,0.5664,0.5672,0.5674,0.5671,0.5684,0.5706,0.5715,0.5724,0.5727,0.5746,0.5765,0.5746,0.5751,0.5738,0.5756,0.5804,0.5733,0.5733,0.5747,0.5853,0.5868,0.5878,0.5791,0.5793,0.5794,0.5853,0,0.5732,0.5769,0.5752,0.579,0.5805,0.5777,0.5796,0.5797,0.579,0.5802,0.5794,0.5809,0.5783,0.5785,0.5801,0.5795,0.5825,0.579,0.5808,0.5809,0.581,0.5888,0.5904,0.596,0.586,0.5861,0.5862,0,0.5808,0.5814,0.5854,0.5848,0.5853,0.5871,0.5877,0.5889,0.5889,0.5883,0.5887,0.587,0.5891,0.586,0.5889,0.5866,0.5872,0.587,0.5871,0.5873,0.584,0.5892,0.5978,0.5986,0.5874,0.5873,0.5872,0,0.5871,0.5889,0.5915,0.5917,0.591,0.5923,0.5921,0.5919,0.5926,0.5931,0.5935,0.5944,0.5949,0.5956,0.5941,0.592,0.5972,0.594,0.5968,0.5969,0.5981,0.5981,0.607,0.5984,0.5984,0.5984,0.5984,0,0.594,0.5966,0.5943,0.5959,0.5987,0.5967,0.5995,0.599,0.5988,0.6003,0.5979,0.5993,0.5973,0.5985,0.5974,0.6,0.6002,0.5998,0.5995,0.6,0.6001,0.6005,0.6001,0.5986,0.5986,0.5985,0.5985,0,0.6016,0.6002,0.6028,0.6019,0.6018,0.6039,0.6031,0.6046,0.6037,0.6056,0.6059,0.6045,0.6058,0.6044,0.6057,0.6049,0.6084,0.6074,0.6084,0.6081,0.611,0.6108,0.6205,0.6217,0.6123,0.6124,0.6125,0,0.6062,0.6081,0.6074,0.6081,0.6081,0.6094,0.6099,0.608,0.6087,0.6088,0.6103,0.6113,0.6121,0.6144,0.6135,0.6145,0.6136,0.6169,0.6137,0.6142,0.6137,0.6136,0.6138,0.6176,0.6177,0.6178,0.6179,0,0.6145,0.6136,0.6146,0.6152,0.616,0.6164,0.6167,0.6175,0.6154,0.6163,0.6176,0.6182,0.6194,0.6206,0.6212,0.621,0.6192,0.6189,0.6196,0.6203,0.6207,0.6205,0.6102,0.6187,0.6186,0.6186,0.6185,0.6185,0.6207,0.6223,0.622,0.623,0.623,0.6233,0.6246,0.6238,0.6248,0.6256,0.6243,0.626,0.6258,0.6265,0.6265,0.6277,0.6263,0.6274,0.6276,0.6279,0.6284,0.6204,0.6279,0.6278,0.6278,0.6278,0.6278,0,0.6289,0.6285,0.6296,0.6299,0.6308,0.6288,0.6289,0.6298,0.6312,0.6312,0.632,0.6335,0.6345,0.6337,0.6346,0.6357,0.6349,0.636,0.636,0.636,0.6296,0.6289,0.6367,0.6367,0.6367,0.6367,0.6367,0.6367,0.6333,0.6358,0.6348,0.6373,0.6369,0.6384,0.6386,0.6389,0.6388,0.6405,0.6414,0.6408,0.6404,0.6412,0.6421,0.6418,0.6423,0.6438,0.6432,0.6373,0.6364,0.6356,0.6349,0.6439,0.6439,0.6495,0.6495,0.6496]}]]